Погода в Марау-Саунд

Соломоновы острова     9°48′06″S   160°50′42″E
темп.,
°C
ветер,
м/с
пор.,
м/с
влажн.,
%
обл.,
%
осадки,
мм/ч
давл.,
гПа
погр.,
м
7 мая, пт
пт723:00+26вюв2384100 0.6 1011274
02:00+25юв238554 0.8 1009294
05:00+25юв138822 3.9 1010204
08:00+26юв238425 1.3 1011303
11:00+26вюв3483100 5.2 1011374
14:00+27вюв3585100 3.8 1008493
17:00+26вюв368887 9.6 1009362
20:00+25вюв2591100 7.3 1011274
8 мая, сб
сб823:00+25вюв2591100 10.2 1011304
02:00+25юв2491100 2.2 1009296
05:00+25вюв249171 4.7 1009276
08:00+26вюв468971 5.3 1011519
11:00+27вюв478754 9.8 1010727
14:00+27юв4686100 4.5 1008760
17:00+26вюв478899 7.9 1008541
20:00+25вюв379197 5.6 1010389
9 мая, вс
вс923:00+25вюв4890100 15.3 1010524
02:00+25вюв4789100 12.6 1008408
05:00+25вюв3590100 21.3 1008356
08:00+26вюв4789100 9.3 1010451
11:00+25в4791100 10.5 1010671
14:00+27вюв478882 5.1 1007689
17:00+26вюв3589100 10.0 1007488
20:00+24юв249286 3.8 1009272
10 мая, пн
пн1023:00+24юв2592100 9.1 1009252
02:00+24вюв1392100 8.1 1008208
05:00+24юв0192100 14.9 1008107
08:00+24юв129168 3.4 1010175
11:00+27в2384100 5.8 1009550
14:00+27в1280100 2.5 1007632
17:00+26юв128797 4.3 1007199
20:00+24ююв129287 5.4 101081
11 мая, вт
вт1123:00+24ююв128997 7.9 1010140
02:00+24ююз118987 0.7 1008175
05:00+24ююз1189100 3.0 100862
08:00+25юв128737 0.1 1010211
11:00+27в22809 2.3 1010472
14:00+29в226751 1.1 1007837
17:00+27в22795 1.6 1007294
20:00+24ююв11898 1.8 101093